Tracking 17925 objects as of 21-January-2017
HD Live streaming from Space Station
objects crossing your sky now

GONETS M 03

Track GONETS M 03 now!
10-day predictions
GONETS M 03 is classified as:


NORAD ID: 38734
Int'l Code: 2012-041B
Perigee: 1,487.0 km
Apogee: 1,516.0 km
Inclination: 82.5 °
Period: 115.9 minutes
Semi major axis: 7872 km
RCS: 1.8381 m2 (large)
Launch date: July 28, 2012
Source: Commonwealth of Independent States (former USSR) (CIS)
Launch site: PLESETSK MISSILE AND SPACE COMPLEX (PKMTR)

Gonets-M1 is a telecoms satellites.
Your satellite tracking list
Your tracking list is empty





NASA's NSSDC Master Catalog

Two Line Element Set (TLE):
1 38734U 12041B   17020.68270840  .00000024  00000-0  10000-3 0  9998
2 38734  82.4754  55.4033 0018448 346.8312  13.2283 12.42895278203438
Source of the keplerian elements: AFSPC